Regional Weather Roundup
Issued by NWS

Home | Current Version | Previous Version | Graphics & Text | Print | Product List | Glossary On
Versions: 1 2 3 4 5 6 7 8 9 10 11 12 13 14 15 16 17 18 19 20 21 22 23 24 25 26 27 28 29 30 31 32 33 34 35 36 37 38 39 40 41 42 43 44 45 46 47 48 49 50
000
ASUS43 KMPX 180101
RWRMN
WEATHER ROUNDUP FOR MINNESOTA
NATIONAL WEATHER SERVICE TWIN CITIES/CHANHASSEN MN
700 PM CST WED JAN 17 2018


NOTE: "FAIR" INDICATES FEW OR NO CLOUDS BELOW 12,000 FEET WITH NO
SIGNIFICANT WEATHER AND/OR OBSTRUCTIONS TO VISIBILITY. N/A MEANS
CURRENT SKY AND/OR WEATHER CONDITIONS ARE NOT AVAILABLE.

MNZ060>063-068>070-180200-
   Twin Cities Metro

CITY           SKY/WX    TMP DP  RH WIND       PRES   REMARKS
TWIN CITIES    FAIR      26  16  65 SW12      30.08F WCI  16
ST PAUL        FAIR      25  14  63 S6        30.10F WCI  18
CRYSTAL        FAIR      27  13  55 SW13      30.06F WCI  16
BLAINE         CLEAR     28  18  64 SW13      30.05F WCI  18
LAKEVILLE      FAIR      25  16  68 W9        30.09S WCI  15
EDEN PRAIRIE   FAIR      25  15  66 SW9       30.07S WCI  15
SOUTH ST PAUL  FAIR      26  15  61 CALM      30.08F
LAKE ELMO      FAIR      25  16  68 SW8       30.07F WCI  16
$$
MNZ001>005-007-008-013>017-022>024-027-028-180200-
   Northwest Minnesota

CITY           SKY/WX    TMP DP  RH WIND       PRES   REMARKS
BEMIDJI        FAIR      28  19  69 W13       29.88F WCI  17
HALLOCK        FAIR      21  18  86 SW9       29.81F WCI  11
ROSEAU         FAIR      27  21  80 SW16G22   29.78F WCI  14
WARROAD        FAIR      25  19  80 SW12G17   29.77F WCI  14
CROOKSTON      FAIR      19  18  93 SW12      29.91F WCI   7
FOSSTON        FAIR      18  12  79 S12       29.92F WCI   5
DETROIT LAKES  FAIR      30  23  74 W9        29.97F WCI  22
MOORHEAD       FAIR      27  19  74 SW10      30.00S WCI  17
PARK RAPIDS    FAIR      19  12  74 W5        29.93S WCI  12
MAHNOMEN       FAIR      19  15  85 SW14      29.94F WCI   6
$$
MNZ006-009>011-018-025>026-180200-
   North Central Minnesota

CITY           SKY/WX    TMP DP  RH WIND       PRES   REMARKS
BAUDETTE       FAIR      23  16  74 SW8       29.77F WCI  14
FLAG ISLAND    FAIR      10   9  92 S6        29.75F WCI   1
INTL FALLS     FAIR      21  12  68 SW8       29.80F WCI  11
WASKISH        FAIR      25  18  74 SW16G23   29.84F WCI  12
BIG FORK       FAIR      27  16  63 SW9       29.84F WCI  17
LONGVILLE      FAIR      25  16  68 SW9       29.91F WCI  15
GRAND RAPIDS   FAIR      25  15  66 W9        29.89S WCI  15
CRANE LAKE     FAIR      25  16  68 W3        29.84R
ORR            FAIR      25  12  58 W6        29.80S WCI  18
COOK           FAIR      23  14  68 SW5       29.83S WCI  17
WALKER         FAIR      26  16  66 W9        29.90S WCI  16
$$
MNZ012-019>021-037-180200-
   Northeast Minnesota

CITY           SKY/WX    TMP DP  RH WIND       PRES   REMARKS
DULUTH         FAIR      26   8  46 W21G29    29.85S WCI  12
ELY            FAIR      23  14  68 SW6       29.80S WCI  16
HIBBING        FAIR      25  13  60 W7        29.84S WCI  17
EVELETH        FAIR      22  10  58 SW8       29.85R WCI  13
DULUTH HARBOR  FAIR      25  12  58 SW16      29.90S WCI  12
TWO HARBORS    FAIR      28  12  50 SW10G17   29.83S WCI  19
SILVER BAY     FAIR      27  10  50 SW6       29.81R WCI  20
GRAND MARAIS     N/A     28  16  60 W5        29.81R WCI  23
G MARAIS ARPRT FAIR      21  10  63 W9G16     29.74R WCI  11
$$
MNZ029>031-032-039>041-046>048-054>057-064-180200-
   West Central Minnesota

CITY           SKY/WX    TMP DP  RH WIND       PRES   REMARKS
FERGUS FALLS   FAIR      23  18  80 SW5       30.02F WCI  17
WHEATON        CLEAR     30  21  69 W13       30.06F WCI  20
MORRIS         CLEAR     25  18  74 SW8       30.05S WCI  16
ALEXANDRIA     FAIR      29  20  69 W15       30.01F WCI  18
ELBOW LAKE     FAIR      23  19  83 SW9       30.03F HAZE    WCI  13
WADENA         FAIR      25  18  74 W14       29.96F WCI  13
GLENWOOD       FAIR      27  19  74 W15       30.03F WCI  15
APPLETON       CLEAR     28  19  69 SW12      30.08F WCI  18
BENSON         CLOUDY    27  19  74 W7        30.08F WCI  19
ORTONVILLE     CLEAR     30  19  64 W9        30.07F WCI  22
MADISON        CLEAR     30  21  69 W12       30.10F WCI  21
WILLMAR        FAIR      25  18  74 SW9       30.10S WCI  15
$$
MNZ033>034-036-042>043-049>051-058-059-180200-
   Central Minnesota

CITY           SKY/WX    TMP DP  RH WIND       PRES   REMARKS
ST CLOUD       FAIR      20  13  74 SW6       30.03F WCI  12
SAUK CENTRE      N/A     27  19  73 SW9       30.02S WCI  17
PAYNESVILLE    FAIR      27  20  75 SW13      30.04F WCI  16
PINE RIVER     FAIR      25  16  68 W6        29.97F WCI  18
BRAINERD       FAIR      27  16  63 W14       29.96S WCI  16
STAPLES        FAIR      25  16  68 W8        29.97F WCI  16
LONG PRAIRIE   FAIR      27  18  69 S6        30.00F WCI  20
LITTLE FALLS   FAIR      19  10  68 S3        30.00F
LITCHFIELD     FAIR      27  19  74 SW7       30.07S WCI  19
BUFFALO        FAIR      25  16  67 SW8       30.06F WCI  17
MAPLE LAKE     FAIR      26  18  72 MISG      30.05F
HUTCHINSON     FAIR      25  17  72 SW9       30.09F WCI  16
$$
MNZ037-044-045-052-053-180200-
   East Central Minnesota

CITY           SKY/WX    TMP DP  RH WIND       PRES   REMARKS
PRINCETON      FAIR      25  16  68 S8        30.01F WCI  16
MORA           FAIR      25  14  63 SW7       30.01S WCI  17
CAMBRIDGE      FAIR      27  16  63 SW8       30.03F WCI  18
RUSH CITY      FAIR      24  14  65 SW9       30.02F WCI  14
MOOSE LAKE     FAIR      23  10  58 SW5       29.92F WCI  17
HINCKLEY       FAIR      23  14  68 SW9       29.98F WCI  13
CLOQUET        FAIR      25  10  54 SW12G17   29.88S WCI  14
MCGREGOR       FAIR      25  14  63 SW3       29.92S
$$
MNZ071>073-080-081-089-090-097-098-180200-
   Southwest Minnesota

CITY           SKY/WX    TMP DP  RH WIND       PRES   REMARKS
MONTEVIDEO     CLEAR     28  18  64 W8        30.10F WCI  20
GRANITE FALLS  CLEAR     27  19  73 SW9       30.13S WCI  18
CANBY          CLOUDY    31  20  63 SW9       30.12F WCI  23
MARSHALL       CLOUDY    24  17  74 W15       30.13R WCI  11
REDWOOD FALLS  CLOUDY    26  16  65 W13       30.13R WCI  15
OLIVIA         CLOUDY    21  16  79 SW9       30.10F WCI  11
PIPESTONE      CLOUDY    21  16  79 W8        30.15R WCI  12
WINDOM         CLOUDY    27   9  46 SW15      30.13S WCI  15
WORTHINGTON    CLOUDY    26  18  71 SW25G32   30.14S WCI  11
JACKSON        CLOUDY    27  18  69 SW14G25   30.14F WCI  15
SLAYTON        CLOUDY    26  17  71 SW18G25   30.12F WCI  12
$$
MNZ065>067-074>077-082>085-091>093-180200-
   South Central Minnesota

CITY           SKY/WX    TMP DP  RH WIND       PRES   REMARKS
MANKATO        FAIR      25  17  72 SW13      30.14S WCI  14
NEW ULM        CLOUDY    25  16  68 SW13      30.13S WCI  13
ST JAMES       CLOUDY    25  18  74 SW10      30.15S WCI  15
FAIRMONT       CLOUDY    27  18  69 SW15G24   30.14F WCI  15
FARIBAULT      FAIR      25  16  68 S8        30.12S WCI  16
OWATONNA       FAIR      23  16  74 SW18      30.12S WCI   9
WASECA         FAIR      23  16  74 SW13      30.15R WCI  11
ALBERT LEA     FAIR      23  14  68 SW13G20   30.14F WCI  11
$$
MNZ078>079-086>088-094>096-180200-
   Southeast Minnesota

CITY           SKY/WX    TMP DP  RH WIND       PRES   REMARKS
ROCHESTER      FAIR      20  14  77 SW25G33   30.11F WCI   2
RED WING       FAIR      25  12  58 W8        30.10F WCI  16
STANTON        FAIR      25  17  71 SW14      30.09F WCI  13
DODGE CENTER   FAIR      19  14  79 SW21      30.10F WCI   3
WINONA         FAIR      25  14  63 W5        30.14F WCI  19
PRESTON        FAIR      20  12  69 SW20G31   30.14F WCI   5
$$
ABBREVIATIONS USED IN REMARKS
   TC - TEMPERATURES IN CELSIUS
  WCI - WIND CHILL INDEX
   HX - HEAT INDEX
  VSB - VISIBILITY
$$



USA.gov is the U.S. government's official web portal to all federal, state and local government web resources and services.